Location: ????????
(38.4362°N, 22.8767°E)
Time: 02:39:49
(UTC+00:00)

ACS3 Solar Sail - Visible Passes

Search period start: 24 June 2024 00:00
Search period end: 04 July 2024 00:00
Orbit: 992 x 1024 km, 97.4° (Epoch: 23 June)

Date Brightness Start Highest point End Pass type
(mag) Time Alt. Az. Time Alt. Az. Time Alt. Az.
24 Jun 6.0 18:54:33 12° ESE 18:59:14 28° ENE 19:04:21 10° NNE visible
24 Jun 5.6 20:39:55 25° SSW 20:43:04 44° W 20:48:59 10° NNW visible
25 Jun 5.1 19:29:22 21° SE 19:33:22 53° ENE 19:39:23 10° N visible
25 Jun 6.6 21:14:42 16° SW 21:17:45 22° W 21:22:29 10° NW visible
26 Jun 6.6 18:21:03 10° E 18:24:24 15° ENE 18:27:45 10° NNE visible
26 Jun 4.8 20:04:09 28° S 20:07:42 82° WSW 20:13:56 10° NNW visible
26 Jun 7.2 21:52:15 10° W 21:52:39 10° W 21:53:03 10° W visible
27 Jun 5.9 18:53:36 12° ESE 18:58:21 29° ENE 19:03:32 10° N visible
27 Jun 5.7 20:38:57 24° SSW 20:42:13 42° W 20:48:04 10° NNW visible
28 Jun 5.1 19:28:25 21° SE 19:32:30 54° ENE 19:38:32 10° N visible
28 Jun 6.6 21:13:46 15° SW 21:16:55 21° W 21:21:32 10° NW visible
29 Jun 6.6 18:20:02 10° E 18:23:31 16° ENE 18:26:59 10° NNE visible
29 Jun 4.9 20:03:13 27° S 20:06:51 80° W 20:13:05 10° NNW visible
30 Jun 5.9 18:52:40 12° ESE 18:57:28 30° ENE 19:02:43 10° N visible
30 Jun 5.7 20:38:01 23° SSW 20:41:22 41° W 20:47:11 10° NNW visible
01 Jul 5.1 19:27:29 21° SE 19:31:38 56° ENE 19:37:41 10° N visible
01 Jul 6.7 21:12:49 14° SW 21:16:04 21° W 21:20:36 10° NW visible
02 Jul 4.9 20:02:16 26° S 20:05:59 77° W 20:12:13 10° NNW visible
03 Jul 5.8 18:51:44 12° SE 18:56:35 31° ENE 19:01:54 10° N visible
03 Jul 5.8 20:37:05 22° SSW 20:40:31 39° W 20:46:18 10° NNW visible
